Location: Unspecified
(60.3052°N, 5.3304°E)
Time: 20:30:54
(UTC+01:00)

ISS - Visible Passes

Search period start: 25 February 2021 00:00
Search period end: 07 March 2021 00:00
Orbit: 417 x 422 km, 51.6° (Epoch: 26 February)

Date Brightness Start Highest point End Pass type
(mag) Time Alt. Az. Time Alt. Az. Time Alt. Az.
25 Feb -1.1 06:24:50 10° SSW 06:26:41 14° SSE 06:28:32 10° SE visible
26 Feb -1.1 05:38:11 10° S 05:39:29 12° SSE 05:40:46 10° SE visible
27 Feb -1.5 06:25:47 10° SW 06:28:09 18° S 06:30:30 10° SE visible
28 Feb -1.5 05:39:31 13° SSW 05:40:53 16° SSE 05:43:03 10° SE visible
01 Mar -1.3 04:53:52 14° SSE 04:53:52 14° SSE 04:55:29 10° SE visible
01 Mar -1.7 06:27:08 10° SW 06:29:36 19° S 06:32:05 10° SE visible
02 Mar -1.8 05:41:08 16° SSW 05:42:18 19° S 05:44:45 10° SE visible
03 Mar -1.6 04:55:25 17° SSE 04:55:25 17° SSE 04:57:21 10° SE visible
03 Mar -1.7 06:28:41 10° SW 06:31:01 18° S 06:33:21 10° SSE visible
04 Mar -0.8 04:09:43 11° SE 04:09:43 11° SE 04:09:51 10° SE visible
04 Mar -1.9 05:42:40 16° SSW 05:43:42 19° S 05:46:09 10° SE visible
05 Mar -1.8 04:56:57 18° SSE 04:56:57 18° SSE 04:58:51 10° SE visible
05 Mar -1.5 06:30:32 10° SW 06:32:21 14° SSW 06:34:09 10° SSE visible
06 Mar -0.9 04:11:15 11° SE 04:11:15 11° SE 04:11:29 10° SE visible
06 Mar -1.8 05:44:12 15° SSW 05:45:02 16° SSW 05:47:11 10° SSE visible
